Weather History for Wauseon Fulton County Airport, OH

Change the Weather History Date:

Monday, April 7, 2014

  Actual Average (KTOL) Record (KTOL)
Temperature  
Mean Temperature 42 °F 46 °F  
Max Temperature 51 °F 57 °F 83 °F (1991)
Min Temperature 33 °F 36 °F 8 °F (1982)
Degree Days  
Heating Degree Days 23 19  
Month to date heating degree days 140  
Since 1 July heating degree days 5566  
Cooling Degree Days 0 0  
Month to date cooling degree days 0  
Year to date cooling degree days 0  
Moisture  
Dew Point 33 °F    
Average Humidity 77    
Maximum Humidity 100    
Minimum Humidity 47    
Precipitation  
Precipitation 0.00 in 0.11 in 0.49 in (1957)
Month to date precipitation 0.71  
Year to date precipitation 7.31  
Snow  
Snow 0.00 in 0.10 in - ()
Month to date snowfall 0.6  
Since 1 July snowfall 36.8  
Snow Depth -    
Sea Level Pressure  
Sea Level Pressure 29.72 in    
Wind  
Wind Speed 11 mph (NE)    
Max Wind Speed 23 mph    
Max Gust Speed 29 mph    
Visibility 8 miles    
Events Rain    
T = Trace of Precipitation, MM = Missing Value Source: NWS Daily Summary

Daily Weather History Graph

Daily Weather History Graph

Search for Another Location

Airport:

Trip Planner

Search our weather history database for the weather conditions in past years. The results will help you decide how hot, cold, wet, or windy it might be!

Date:

Astronomy

Apr. 07, 2014 Rise Set
Actual Time 7:09 AM EDT 8:08 PM EDT
Civil Twilight 6:41 AM EDT 8:36 PM EDT
Nautical Twilight 6:07 AM EDT 9:10 PM EDT
Astronomical Twilight 5:32 AM EDT 9:45 PM EDT
Moon 1:02 PM EDT (4/7) 2:47 AM EDT (4/7)
Length of Visible Light 13h 55m
Length of Day
12h 58m
First Quarter, 53% of the Moon is Illuminated
Apr 7
First Quarter
Apr 15
Full
Apr 22
Last Quarter
Apr 29
New
May 6
First Quarter

Hourly Weather History & Observations

Time (EDT) Temp. Windchill Dew Point Humidity Pressure Visibility Wind Dir Wind Speed Gust Speed Precip Events Conditions
12:15 AM 35.6 °F 29.9 °F 28.4 °F 75% 30.00 in 10.0 mi ENE 6.9 mph - N/A   Clear
12:35 AM 35.6 °F 30.7 °F 28.4 °F 75% 30.00 in 10.0 mi NE 5.8 mph - N/A   Clear
1:15 AM 35.6 °F 29.9 °F 28.4 °F 75% 29.99 in 10.0 mi NE 6.9 mph - N/A   Clear
1:35 AM 35.6 °F 29.2 °F 28.4 °F 75% 29.99 in 10.0 mi NE 8.1 mph - N/A   Clear
1:55 AM 35.6 °F 29.2 °F 28.4 °F 75% 29.98 in 10.0 mi NE 8.1 mph - N/A   Clear
2:15 AM 35.6 °F 29.2 °F 28.4 °F 75% 29.97 in 10.0 mi NE 8.1 mph - N/A   Clear
2:35 AM 33.8 °F 27.0 °F 28.4 °F 81% 29.96 in 10.0 mi NE 8.1 mph - N/A   Clear
2:55 AM 33.8 °F 27.0 °F 26.6 °F 75% 29.96 in 10.0 mi NE 8.1 mph - N/A   Clear
3:15 AM 33.8 °F 25.8 °F 26.6 °F 75% 29.94 in 10.0 mi NE 10.4 mph - N/A   Clear
3:35 AM 33.8 °F 26.4 °F 26.6 °F 75% 29.93 in 10.0 mi NE 9.2 mph - N/A   Clear
3:55 AM 33.8 °F 26.4 °F 26.6 °F 75% 29.92 in 10.0 mi NE 9.2 mph - N/A   Clear
4:15 AM 33.8 °F 26.4 °F 28.4 °F 81% 29.91 in 10.0 mi NE 9.2 mph - N/A   Clear
4:35 AM 33.8 °F 26.4 °F 26.6 °F 75% 29.91 in 10.0 mi NE 9.2 mph - N/A   Clear
4:55 AM 33.8 °F 25.8 °F 26.6 °F 75% 29.88 in 10.0 mi NE 10.4 mph - N/A   Clear
5:15 AM 33.8 °F 25.3 °F 26.6 °F 75% 29.87 in 10.0 mi NE 11.5 mph - N/A   Clear
5:35 AM 33.8 °F 25.8 °F 26.6 °F 75% 29.87 in 10.0 mi NE 10.4 mph - N/A   Clear
5:55 AM 33.8 °F 25.3 °F 26.6 °F 75% 29.86 in 10.0 mi NE 11.5 mph - N/A   Clear
6:15 AM 33.8 °F 26.4 °F 26.6 °F 75% 29.86 in 10.0 mi NE 9.2 mph - N/A   Clear
6:35 AM 33.8 °F 25.8 °F 26.6 °F 75% 29.86 in 10.0 mi NE 10.4 mph - N/A   Clear
6:55 AM 33.8 °F 24.8 °F 28.4 °F 81% 29.86 in 10.0 mi ENE 12.7 mph - N/A   Clear
7:15 AM 33.8 °F 25.3 °F 28.4 °F 81% 29.85 in 10.0 mi ENE 11.5 mph - N/A   Clear
7:35 AM 33.8 °F 25.8 °F 28.4 °F 81% 29.86 in 10.0 mi NE 10.4 mph - N/A   Clear
7:55 AM 35.6 °F 28.0 °F 28.4 °F 75% 29.85 in 10.0 mi NE 10.4 mph - N/A   Clear
8:15 AM 35.6 °F 28.0 °F 28.4 °F 75% 29.83 in 10.0 mi NE 10.4 mph - N/A   Partly Cloudy
8:35 AM 35.6 °F 28.0 °F 28.4 °F 75% 29.84 in 10.0 mi NE 10.4 mph - N/A   Clear
8:55 AM 37.4 °F 30.8 °F 28.4 °F 70% 29.85 in 10.0 mi NE 9.2 mph - N/A   Clear
9:15 AM 37.4 °F 30.8 °F 28.4 °F 70% 29.84 in 10.0 mi NE 9.2 mph - N/A   Clear
9:35 AM 37.4 °F 31.4 °F 30.2 °F 75% 29.85 in 10.0 mi NE 8.1 mph - N/A   Clear
9:55 AM 37.4 °F 31.4 °F 28.4 °F 70% 29.84 in 10.0 mi NE 8.1 mph - N/A   Clear
10:15 AM 39.2 °F 32.5 °F 30.2 °F 70% 29.82 in 10.0 mi NE 10.4 mph - N/A   Clear
10:35 AM 39.2 °F 31.6 °F 30.2 °F 70% 29.80 in 10.0 mi NE 12.7 mph - N/A   Clear
10:55 AM 41.0 °F 33.1 °F 30.2 °F 65% 29.78 in 10.0 mi NE 15.0 mph - N/A   Clear
11:15 AM 42.8 °F 36.2 °F 32.0 °F 66% 29.76 in 10.0 mi NE 12.7 mph - N/A   Scattered Clouds
11:35 AM 42.8 °F 35.8 °F 32.0 °F 66% 29.74 in 10.0 mi NNE 13.8 mph - N/A   Partly Cloudy
12:15 PM 48.2 °F - 33.8 °F 58% 29.73 in 10.0 mi East 13.8 mph 19.6 mph N/A   Partly Cloudy
12:35 PM 50.0 °F - 32.0 °F 50% 29.72 in 10.0 mi East 13.8 mph - N/A   Mostly Cloudy
12:55 PM 51.8 °F - 32.0 °F 47% 29.71 in 10.0 mi ENE 12.7 mph - N/A   Mostly Cloudy
1:15 PM 51.8 °F - 32.0 °F 47% 29.68 in 10.0 mi ENE 16.1 mph - N/A   Partly Cloudy
1:35 PM 51.8 °F - 32.0 °F 47% 29.67 in 10.0 mi ENE 15.0 mph 21.9 mph N/A   Partly Cloudy
1:55 PM 50.0 °F - 33.8 °F 54% 29.66 in 10.0 mi ENE 12.7 mph - N/A   Scattered Clouds
2:15 PM 50.0 °F - 33.8 °F 54% 29.63 in 10.0 mi ENE 12.7 mph - N/A   Mostly Cloudy
2:35 PM 50.0 °F - 33.8 °F 54% 29.61 in 10.0 mi ENE 11.5 mph - N/A   Partly Cloudy
2:55 PM 50.0 °F - 33.8 °F 54% 29.59 in 10.0 mi ENE 11.5 mph - N/A   Scattered Clouds
3:15 PM 48.2 °F - 33.8 °F 58% 29.58 in 10.0 mi ENE 16.1 mph - N/A   Mostly Cloudy
3:35 PM 46.4 °F 40.7 °F 35.6 °F 66% 29.58 in 8.0 mi ENE 12.7 mph - N/A   Light Drizzle
3:55 PM 44.6 °F 38.1 °F 37.4 °F 76% 29.59 in 4.0 mi East 13.8 mph - N/A   Light Drizzle
4:15 PM 44.6 °F 39.2 °F 37.4 °F 76% 29.61 in 5.0 mi ENE 10.4 mph - N/A Rain Light Rain
4:35 PM 42.8 °F 37.5 °F 37.4 °F 81% 29.60 in 4.0 mi NE 9.2 mph - N/A Rain Light Rain
4:55 PM 42.8 °F 36.2 °F 39.2 °F 87% 29.60 in 3.0 mi NE 12.7 mph - N/A Rain Light Rain
5:15 PM 42.8 °F 36.6 °F 39.2 °F 87% 29.58 in 3.0 mi NE 11.5 mph - N/A Rain Rain
5:35 PM 42.8 °F 35.1 °F 41.0 °F 93% 29.53 in 4.0 mi NNE 16.1 mph - N/A   Overcast
5:55 PM 42.8 °F 34.8 °F 41.0 °F 93% 29.54 in 4.0 mi NE 17.3 mph 23.0 mph N/A   Overcast
6:15 PM 42.8 °F 34.8 °F 41.0 °F 93% 29.54 in 6.0 mi NNE 17.3 mph 23.0 mph N/A Rain Light Rain
6:35 PM 42.8 °F 34.5 °F 41.0 °F 93% 29.54 in 4.0 mi NNE 18.4 mph - N/A   Overcast
6:55 PM 42.8 °F 35.1 °F 41.0 °F 93% 29.51 in 3.0 mi North 16.1 mph 24.2 mph N/A   Overcast
7:15 PM 42.8 °F 34.8 °F 41.0 °F 93% 29.52 in 3.0 mi North 17.3 mph 23.0 mph N/A   Overcast
7:35 PM 42.8 °F 34.8 °F 41.0 °F 93% 29.51 in 2.5 mi North 17.3 mph - N/A   Overcast
7:55 PM 42.8 °F 35.4 °F 41.0 °F 93% 29.52 in 2.5 mi North 15.0 mph 21.9 mph N/A   Overcast
8:15 PM 42.8 °F 35.1 °F 41.0 °F 93% 29.50 in 3.0 mi North 16.1 mph - N/A   Overcast
8:35 PM 42.8 °F 35.1 °F 41.0 °F 93% 29.50 in 4.0 mi NNE 16.1 mph 23.0 mph N/A Rain Light Rain
8:55 PM 42.8 °F 34.5 °F 41.0 °F 93% 29.48 in 4.0 mi NNE 18.4 mph 25.3 mph N/A Rain Light Rain
9:15 PM 42.8 °F 33.5 °F 41.0 °F 93% 29.47 in 5.0 mi NNE 23.0 mph 28.8 mph N/A   Light Drizzle
9:55 PM 42.8 °F 35.1 °F 41.0 °F 93% 29.51 in 3.0 mi North 16.1 mph - N/A Rain Rain
10:15 PM 41.0 °F 33.9 °F 41.0 °F 100% 29.50 in 3.0 mi North 12.7 mph - N/A   Overcast
10:35 PM 41.0 °F 34.7 °F 41.0 °F 100% 29.49 in 4.0 mi North 10.4 mph - N/A Rain Light Rain
10:55 PM 41.0 °F 34.3 °F 41.0 °F 100% 29.48 in 4.0 mi North 11.5 mph - N/A Rain Light Rain
11:15 PM 42.8 °F 36.2 °F 41.0 °F 93% 29.47 in 5.0 mi North 12.7 mph - N/A Rain Light Rain
11:35 PM 42.8 °F 36.2 °F 41.0 °F 93% 29.47 in 6.0 mi NNW 12.7 mph 18.4 mph N/A Rain Light Rain
11:55 PM 42.8 °F 36.6 °F 41.0 °F 93% 29.47 in 8.0 mi NNW 11.5 mph 20.7 mph N/A   Overcast